Wind_Speed
18 19 21 23 24 25 27 28 30 31 32 35 39 40 41 43 44 46 47 47 47 48 47 48 48 48 47 46 46 45 45 44 44 44 44 42 41 41 40 40 40 39 38 37
17 18 18 21 23 24 25 27 29 30 32 34 37 39 40 42 42 44 46 47 47 47 47 47 47 47 46 45 46 45 45 45 45 44 44 43 43 43 41 41 40 40 39 38
16 16 18 19 21 22 24 25 27 29 32 34 36 38 39 40 41 43 45 46 47 47 47 47 46 46 46 46 45 45 45 45 45 45 45 45 45 44 42 41 40 40 40 39
14 15 16 17 19 21 22 24 25 27 31 34 36 38 38 39 40 42 43 44 45 46 46 46 46 46 45 46 46 46 47 46 45 45 45 45 45 44 44 43 41 40 40 39
13 13 14 16 17 19 20 22 24 25 28 32 34 36 38 38 39 40 42 43 45 45 46 45 45 46 46 46 47 47 47 48 47 46 45 45 45 45 44 45 44 42 39 38
13 12 13 14 15 17 18 20 21 23 25 30 31 34 36 36 36 38 39 41 43 44 44 44 45 45 46 46 47 47 46 47 47 47 47 45 45 45 45 44 44 42 41 39
13 12 12 13 14 15 16 18 18 21 24 27 28 31 33 33 33 36 38 39 41 43 44 44 45 45 46 46 46 46 46 46 47 47 47 46 46 45 45 44 44 43 42 42
13 12 12 13 14 14 16 17 18 20 22 24 26 28 29 31 32 33 35 37 39 40 42 43 44 44 45 46 46 46 46 46 46 46 46 46 45 45 44 44 44 43 43 43
12 12 12 13 13 14 15 17 18 19 21 22 23 24 27 28 30 32 34 35 36 38 40 41 42 43 44 45 45 46 45 45 45 45 45 45 45 45 44 43 43 44 45 44
13 13 12 12 13 13 15 17 18 20 20 22 21 22 23 23 25 28 30 33 34 35 38 39 40 41 42 44 44 45 45 45 44 44 45 45 44 45 45 44 44 44 44 44
13 14 14 14 14 14 15 16 18 19 21 22 22 22 22 22 23 26 29 31 33 34 35 37 38 39 40 42 42 43 44 44 43 44 44 45 46 46 45 45 44 44 45 44
14 15 15 14 15 15 16 17 18 20 21 22 22 22 22 21 22 25 28 29 31 32 34 35 36 38 39 41 41 42 43 44 44 44 45 45 45 46 45 45 44 44 44 44
14 16 16 16 16 16 16 17 19 20 21 22 23 22 23 22 22 24 26 28 30 31 33 34 36 37 38 40 41 42 42 43 43 44 45 45 45 44 44 44 44 44 44 44
15 16 17 17 17 16 17 18 20 21 23 24 23 23 23 23 23 24 25 27 28 30 31 32 34 36 38 39 40 41 42 43 43 43 44 45 45 45 44 43 43 43 43 43
16 16 16 17 18 17 17 18 19 20 22 23 23 23 23 23 23 23 25 26 28 29 30 30 31 34 36 38 39 41 42 43 43 43 44 45 45 46 45 45 44 44 43 43
16 17 17 17 18 18 18 19 20 19 21 22 22 22 23 23 23 23 24 25 26 28 29 30 30 31 34 36 37 39 40 41 42 42 43 44 45 46 46 45 45 44 44 43
17 17 18 18 19 19 18 18 20 20 20 21 21 21 21 22 23 23 23 24 25 27 28 29 29 30 31 33 36 37 38 39 40 41 42 42 43 44 45 45 45 44 43 43
17 17 18 18 19 20 20 19 20 20 21 22 22 22 21 22 23 24 24 24 25 27 28 28 29 30 31 32 33 34 35 37 38 39 40 40 41 42 42 42 42 42 42 42
18 18 18 19 19 19 20 20 20 20 21 22 22 22 22 22 23 24 24 24 25 26 28 28 29 30 31 32 33 33 34 35 36 38 39 39 39 40 40 41 41 41 41 42
18 18 18 19 19 18 19 20 21 21 21 22 24 24 23 23 23 23 24 24 24 26 27 28 29 30 31 32 33 34 34 35 35 36 37 38 39 39 40 40 40 41 41 41
18 17 18 18 19 19 19 19 20 21 21 21 23 23 23 23 23 23 24 24 24 25 26 27 28 30 31 32 33 34 34 35 36 36 36 36 37 38 38 39 40 40 41 41
19 19 18 19 20 20 21 21 21 21 21 22 22 23 22 22 22 22 22 23 24 25 25 26 27 29 30 31 32 32 33 33 34 35 35 35 35 36 37 38 38 39 39 39
19 20 20 20 20 20 21 22 22 23 23 23 23 23 23 23 23 23 23 23 24 24 25 25 26 28 29 30 30 31 32 32 32 33 34 34 34 34 35 36 36 37 37 37
20 20 20 21 20 21 21 21 22 23 24 24 23 24 24 24 24 24 24 24 25 26 25 25 26 27 28 29 29 30 30 30 31 31 32 33 33 34 34 35 36 37 37 36
20 20 20 20 21 22 22 22 23 23 24 24 24 24 24 24 25 25 24 24 25 26 25 25 25 26 26 27 28 28 28 29 30 30 30 31 32 33 33 33 34 35 36 36
21 21 21 20 21 22 22 23 23 24 24 24 25 25 25 24 25 25 25 25 25 25 25 25 25 25 26 26 27 27 27 27 28 28 28 29 29 30 31 31 32 32 33 33
Wind_Direction
265 256 251 251 249 247 243 240 237 236 235 234 230 229 228 228 230 229 229 230 231 233 234 235 235 235 236 237 238 238 239 241 242 242 244 245 247 247 249 251 252 254 254 256
268 258 256 256 251 244 242 241 240 238 235 234 231 230 230 229 231 231 230 231 231 233 234 235 236 235 236 238 237 237 239 240 242 243 243 244 245 246 248 250 251 253 253 255
274 267 258 255 252 245 241 242 243 240 237 234 233 231 231 230 231 231 231 231 232 233 234 235 236 236 237 238 238 237 238 239 241 242 244 244 244 245 246 248 251 253 253 255
277 267 256 252 250 245 244 243 241 240 238 237 236 236 232 231 232 232 232 233 233 234 235 237 237 237 237 238 239 239 240 240 240 241 243 244 245 247 248 248 250 251 252 254
276 268 254 250 247 245 245 243 242 244 241 240 239 240 234 234 236 234 234 234 234 235 235 237 238 238 238 239 240 240 241 240 240 241 242 244 245 246 247 249 249 250 252 253
277 269 257 253 250 248 245 245 244 244 243 241 240 243 239 238 239 238 236 235 235 234 235 237 238 240 240 240 241 241 241 241 241 242 242 244 246 246 247 249 249 250 251 252
276 267 259 255 252 248 243 243 244 244 242 243 242 244 242 241 241 239 237 236 235 235 236 238 239 241 241 242 241 241 241 241 242 243 243 244 245 247 248 249 250 251 252 254
273 265 258 257 252 249 247 246 246 247 247 245 243 245 245 244 242 239 238 236 236 237 238 239 240 241 242 242 242 242 241 241 241 242 242 243 245 246 248 249 250 251 252 255
275 267 262 260 254 252 250 248 250 253 253 250 247 247 247 247 243 241 239 237 237 238 239 240 241 241 241 242 242 242 241 241 241 242 243 243 244 246 248 250 251 252 253 255
275 267 264 263 258 256 256 253 253 255 255 255 253 250 251 252 247 242 240 239 237 239 240 240 241 242 242 242 242 242 242 241 242 242 243 242 244 246 249 250 252 254 255 256
278 269 263 260 259 261 255 254 255 255 253 255 258 252 256 257 252 245 242 242 241 241 240 239 240 242 242 241 241 241 242 242 242 243 244 244 244 246 248 250 252 254 254 256
280 271 264 261 262 262 259 256 253 255 256 257 261 259 258 258 254 250 245 244 244 243 242 241 241 243 243 242 242 242 243 243 243 244 245 245 246 246 248 251 253 255 255 256
281 272 268 264 263 260 261 258 255 256 258 258 261 261 259 259 256 254 251 248 246 245 244 243 242 243 243 242 242 242 242 243 244 244 245 245 246 247 248 250 253 255 256 256
284 275 270 267 265 262 260 262 259 258 259 259 259 261 260 260 258 257 254 251 249 248 247 246 244 243 243 242 242 243 242 243 244 245 246 246 246 247 248 250 252 254 255 256
289 281 274 269 266 265 263 262 261 260 261 262 259 260 260 260 260 259 257 255 252 251 251 249 247 245 244 244 244 244 244 244 245 246 247 246 246 247 248 250 252 253 254 255
293 284 277 272 269 266 264 262 260 260 262 261 260 260 260 259 260 259 258 256 254 252 252 252 250 247 245 245 245 244 245 245 245 247 247 246 246 247 248 250 253 254 255 256
291 284 279 275 273 269 266 265 263 262 261 262 262 262 261 258 259 260 259 257 254 252 252 252 251 249 247 246 245 246 246 246 247 247 247 247 247 249 250 251 252 253 255 256
295 288 283 278 275 273 269 266 266 265 262 261 263 264 263 262 262 262 261 258 254 253 253 253 252 250 250 250 249 248 248 249 249 249 249 249 249 249 251 252 252 252 254 256
297 289 285 281 280 276 271 270 269 268 265 262 263 264 264 265 265 263 264 261 258 255 255 256 256 253 252 252 252 251 251 251 251 251 250 250 250 250 251 251 251 252 253 255
297 290 285 283 283 281 276 273 270 269 268 265 266 266 265 265 265 264 266 265 263 261 259 259 258 256 254 254 253 252 252 252 252 252 252 252 251 251 251 251 251 252 253 254
296 292 285 283 282 281 279 277 273 271 271 271 272 271 269 266 266 267 267 266 264 263 262 261 259 257 255 255 255 254 253 253 252 252 252 252 252 252 252 252 252 252 254 254
294 291 288 285 283 281 280 278 275 272 271 273 274 274 272 268 268 269 268 267 266 266 264 263 260 258 257 255 255 255 254 253 252 252 252 252 252 252 252 252 252 252 253 254
293 289 288 286 284 282 280 278 276 273 271 272 274 274 271 270 270 269 269 268 267 268 267 265 262 260 259 258 257 256 255 254 253 253 253 253 252 253 252 251 252 252 252 252
294 289 288 285 283 281 280 279 277 274 273 272 274 272 270 270 270 269 269 268 268 269 269 268 265 264 262 261 260 260 258 256 254 253 252 252 251 251 251 251 252 252 251 251
295 290 288 287 284 281 280 279 279 278 275 272 273 272 269 269 269 268 269 269 268 269 270 269 268 266 265 264 263 261 259 257 255 253 252 251 251 250 250 251 252 252 251 251
294 290 288 288 287 285 281 279 278 279 277 275 274 272 271 270 268 269 269 268 268 268 269 270 269 267 265 264 264 263 261 258 254 251 252 252 250 248 248 250 251 251 251 250
Height
5612 5613 5614 5617 5619 5622 5623 5626 5630 5635 5639 5642 5647 5653 5660 5666 5672 5679 5685 5692 5698 5703 5708 5713 5718 5723 5728 5732 5736 5741 5745 5749 5752 5755 5759 5762 5765 5768 5770 5772 5774 5776 5778 5780
5609 5609 5611 5612 5614 5616 5618 5621 5625 5629 5632 5636 5640 5646 5652 5658 5664 5670 5677 5683 5689 5694 5699 5704 5709 5713 5718 5723 5727 5731 5735 5739 5743 5746 5750 5753 5756 5759 5761 5763 5766 5768 5770 5772
5606 5608 5607 5608 5609 5611 5614 5617 5620 5623 5626 5629 5634 5639 5646 5651 5656 5662 5668 5674 5680 5685 5690 5695 5700 5705 5709 5714 5718 5722 5726 5730 5733 5737 5740 5743 5746 5749 5752 5755 5757 5759 5761 5763
5602 5603 5604 5604 5606 5608 5610 5613 5615 5618 5621 5624 5628 5632 5639 5644 5649 5655 5661 5666 5671 5676 5681 5685 5690 5695 5700 5704 5708 5712 5715 5719 5723 5727 5730 5734 5737 5740 5743 5746 5748 5750 5752 5754
5600 5600 5601 5602 5603 5604 5607 5609 5612 5614 5616 5619 5623 5626 5633 5637 5642 5648 5653 5658 5662 5667 5672 5676 5681 5685 5690 5693 5697 5701 5705 5709 5713 5717 5720 5723 5727 5730 5733 5736 5738 5740 5743 5745
5598 5598 5598 5600 5601 5602 5604 5606 5608 5609 5611 5614 5618 5621 5626 5632 5637 5641 5645 5649 5654 5658 5663 5667 5671 5675 5680 5683 5687 5691 5695 5699 5702 5706 5710 5713 5716 5719 5723 5726 5728 5731 5734 5736
5596 5596 5596 5597 5598 5599 5601 5603 5604 5605 5606 5609 5613 5615 5621 5626 5629 5633 5637 5641 5645 5650 5654 5658 5662 5666 5670 5673 5677 5681 5685 5689 5692 5696 5700 5703 5706 5709 5713 5716 5718 5721 5724 5727
5594 5594 5594 5594 5595 5596 5597 5600 5601 5601 5602 5606 5608 5611 5617 5619 5622 5625 5629 5633 5637 5641 5645 5649 5652 5656 5660 5664 5667 5671 5675 5679 5683 5686 5690 5693 5696 5700 5703 5706 5709 5712 5715 5717
5591 5592 5592 5592 5593 5594 5595 5596 5598 5599 5600 5602 5604 5608 5611 5613 5616 5619 5622 5625 5629 5633 5637 5640 5643 5647 5650 5654 5657 5661 5665 5669 5673 5676 5680 5684 5687 5690 5693 5696 5699 5702 5705 5707
5589 5590 5590 5590 5591 5592 5593 5594 5595 5596 5597 5598 5601 5603 5606 5608 5609 5612 5615 5618 5621 5625 5628 5631 5634 5638 5641 5644 5648 5651 5655 5659 5663 5666 5670 5674 5677 5680 5684 5687 5690 5692 5695 5697
5587 5588 5588 5588 5588 5589 5590 5591 5592 5593 5594 5595 5596 5602 5601 5602 5603 5605 5608 5610 5613 5616 5619 5622 5625 5629 5632 5635 5638 5642 5645 5649 5653 5657 5660 5664 5667 5671 5674 5677 5680 5682 5685 5687
5585 5585 5585 5585 5586 5585 5586 5587 5588 5590 5591 5591 5592 5598 5595 5596 5597 5599 5601 5603 5606 5608 5611 5614 5617 5620 5623 5626 5630 5633 5636 5640 5644 5647 5651 5654 5658 5661 5664 5668 5670 5673 5675 5677
5582 5582 5582 5582 5584 5583 5583 5583 5584 5585 5586 5587 5588 5593 5590 5591 5592 5593 5595 5597 5599 5601 5603 5606 5608 5611 5614 5617 5621 5624 5627 5631 5634 5638 5641 5644 5648 5651 5654 5658 5660 5663 5665 5668
5579 5578 5579 5579 5578 5578 5579 5579 5580 5581 5581 5582 5584 5585 5586 5586 5587 5588 5589 5590 5592 5594 5596 5598 5600 5603 5605 5608 5612 5615 5618 5621 5624 5628 5631 5634 5637 5641 5644 5648 5651 5653 5655 5658
5575 5575 5574 5574 5574 5574 5575 5575 5575 5576 5577 5577 5579 5579 5580 5580 5581 5582 5583 5584 5585 5587 5588 5590 5592 5594 5597 5600 5603 5606 5609 5612 5615 5618 5621 5624 5628 5631 5635 5638 5641 5643 5645 5648
5572 5571 5571 5571 5570 5570 5571 5571 5571 5571 5572 5572 5573 5574 5574 5574 5575 5576 5576 5577 5578 5580 5581 5583 5585 5586 5589 5591 5594 5597 5600 5602 5605 5608 5611 5614 5618 5621 5625 5628 5631 5633 5635 5638
5568 5567 5567 5567 5566 5566 5567 5566 5566 5566 5566 5567 5568 5569 5568 5569 5569 5569 5570 5571 5571 5573 5574 5576 5577 5579 5581 5583 5585 5588 5590 5593 5596 5599 5602 5605 5608 5611 5615 5618 5620 5623 5626 5628
5565 5563 5562 5562 5562 5562 5564 5562 5561 5561 5562 5561 5562 5562 5562 5563 5563 5563 5564 5564 5565 5566 5567 5569 5570 5571 5573 5575 5577 5579 5581 5584 5586 5589 5592 5595 5598 5601 5604 5607 5610 5613 5616 5618
5561 5559 5558 5557 5557 5557 5558 5557 5556 5556 5557 5556 5556 5556 5557 5557 5558 5558 5557 5558 5558 5559 5560 5561 5562 5564 5565 5567 5569 5571 5573 5575 5577 5580 5582 5585 5588 5591 5594 5597 5600 5603 5606 5608
5557 5555 5555 5553 5552 5552 5554 5552 5551 5552 5552 5552 5551 5551 5551 5551 5552 5553 5551 5551 5551 5552 5553 5554 5555 5556 5557 5559 5560 5562 5564 5566 5568 5570 5573 5576 5578 5581 5584 5587 5590 5593 5595 5598
5553 5551 5550 5549 5548 5548 5548 5547 5546 5548 5548 5546 5545 5544 5544 5544 5545 5545 5545 5545 5545 5545 5546 5546 5547 5548 5549 5551 5552 5554 5555 5557 5559 5561 5564 5566 5568 5571 5574 5577 5579 5582 5585 5588
5549 5547 5546 5545 5544 5546 5543 5542 5542 5542 5541 5540 5539 5539 5538 5538 5538 5538 5539 5538 5538 5539 5539 5539 5539 5540 5541 5542 5544 5545 5547 5548 5550 5552 5554 5556 5559 5561 5563 5566 5569 5572 5575 5578
5544 5544 5542 5541 5542 5539 5537 5536 5536 5536 5535 5534 5534 5533 5533 5533 5532 5532 5532 5532 5532 5532 5532 5532 5532 5533 5533 5534 5535 5537 5538 5539 5541 5543 5545 5547 5549 5551 5553 5556 5559 5562 5565 5568
5540 5538 5537 5536 5535 5533 5532 5531 5530 5529 5529 5528 5528 5527 5527 5526 5526 5526 5526 5526 5526 5525 5525 5525 5525 5525 5526 5526 5527 5528 5529 5530 5532 5533 5535 5537 5539 5541 5544 5547 5550 5553 5556 5559
5535 5533 5531 5530 5529 5528 5527 5525 5524 5523 5522 5522 5521 5520 5520 5520 5520 5519 5519 5519 5519 5518 5518 5518 5518 5518 5518 5519 5519 5520 5520 5521 5523 5524 5526 5527 5530 5532 5535 5537 5540 5543 5546 5549
5530 5528 5526 5525 5523 5522 5521 5519 5518 5517 5516 5515 5515 5514 5513 5513 5513 5512 5512 5512 5512 5511 5511 5511 5511 5511 5511 5511 5512 5512 5512 5513 5514 5516 5517 5519 5521 5523 5526 5529 5532 5534 5538 5541